Home   Weather   Caen   Past weeks

Flag for France Past Weather in Caen, Lower Normandy, France — Yesterday and Last 2 Weeks

Now
46 °F

Passing clouds.


Feels Like: 42 °F
Forecast: 41 / 53 °F
Wind: 9 mph from Northwest

Location: Caen Airport

Current Time: Dec 11, 2016 at 3:26:59 am

Latest Report: Dec 11, 2016 at 3:00 am


Visibility: 4 mi

Pressure: 30.27 "Hg

Humidity: 100%

Dew Point: 46 °F

Location of CaenLocation

Past Weather in Caen — Graph

°F

Caen Temperature Yesterday

Maximum temperature yesterday: 59 °F (at 2:00 pm)
Minimum temperature yesterday: 39 °F (at 9:00 am)
Average temperature yesterday: 48 °F

High & Low Weather Summary for the Past Weeks

 TemperatureHumidityPressure
High59 °F (Dec 10, 2:00 pm)100% (Dec 1, 12:30 am)30.60 "Hg (Dec 1, 12:30 am)
Low25 °F (Nov 30, 3:30 am)37% (Nov 28, 4:30 pm)30.01 "Hg (Nov 26, 5:30 pm)
Average42 °F82%30.28 "Hg
* Reported Nov 26 2:00 am — Dec 11 2:00 am, Caen, Weather by CustomWeather, © 2016

Note: Actual official high and low records may vary slightly from our data, if they occured in-between our weather recording intervals... More about our weather records

Advertising

Caen Weather History for the Previous 24 Hours

Scroll right to see more
 ConditionsComfort  
Time TempWeatherWind HumidityBarometerVisibility
2:00 am
Sun, Dec 11
50 °FPassing clouds.8 mph94%30.24 "Hg4 mi
1:30 am50 °FLight rain. Fog.9 mph94%30.24 "Hg3 mi
1:00 am50 °FLight rain. Fog.14 mph94%30.24 "Hg3 mi
12:30 am52 °FOvercast.16 mph88%30.21 "HgN/A
12:00 am54 °FOvercast.16 mph77%30.21 "HgN/A
11:30 pm
Sat, Dec 10
52 °FPartly cloudy.13 mph77%30.18 "HgN/A
11:00 pm52 °FPartly cloudy.16 mph77%30.18 "HgN/A
10:30 pm50 °FPassing clouds.12 mph82%30.18 "HgN/A
10:00 pm52 °FClear.16 mph77%30.18 "Hg10 mi
9:30 pm50 °FClear.15 mph82%30.18 "Hg10 mi
9:00 pm50 °FClear.13 mph82%30.18 "Hg10 mi
8:30 pm48 °FClear.14 mph87%30.21 "Hg10 mi
8:00 pm48 °FClear.13 mph87%30.21 "Hg10 mi
7:30 pm50 °FClear.10 mph82%30.21 "Hg10 mi
7:00 pm50 °FClear.9 mph82%30.21 "Hg10 mi
6:30 pm50 °FClear.12 mph82%30.21 "Hg10 mi
6:00 pm50 °FClear.12 mph82%30.21 "Hg10 mi
5:30 pm50 °FClear.9 mph82%30.21 "Hg10 mi
5:00 pm52 °FClear.9 mph77%30.21 "Hg10 mi
4:30 pm55 °FSunny.13 mph67%30.24 "Hg10 mi
4:00 pm55 °FSunny.12 mph72%30.24 "Hg10 mi
3:30 pm57 °FSunny.13 mph67%30.24 "Hg10 mi
3:00 pm59 °FSunny.13 mph63%30.24 "Hg10 mi
2:30 pm59 °FSunny.14 mph68%30.24 "Hg10 mi
2:00 pm59 °FSunny.14 mph68%30.24 "Hg10 mi
1:30 pm55 °FSunny.10 mph72%30.27 "Hg10 mi
1:00 pm54 °FSunny.9 mph77%30.27 "Hg10 mi
12:30 pm54 °FSunny.10 mph77%30.27 "Hg10 mi
12:00 pm52 °FSunny.12 mph82%30.27 "Hg10 mi
11:30 am52 °FSunny.12 mph82%30.30 "Hg10 mi
11:00 am52 °FSunny.13 mph82%30.30 "Hg10 mi
10:30 am50 °FOvercast.10 mph88%30.30 "HgN/A
10:00 am46 °FMore clouds than sun.9 mph93%30.30 "Hg6 mi
9:30 am45 °FClear.8 mph100%30.27 "Hg5 mi
9:00 am39 °FFog.5 mph100%30.27 "Hg2 mi
8:30 am43 °FFog.3 mph93%30.27 "Hg2 mi
8:00 am41 °FFog.3 mph100%30.27 "Hg3 mi
7:30 am41 °FFog.3 mph100%30.27 "Hg3 mi
7:00 am43 °FFog.5 mph100%30.27 "Hg3 mi
6:30 am41 °FFog.6 mph93%30.27 "Hg2 mi
6:00 am43 °FFog.5 mph93%30.27 "Hg2 mi
5:30 am45 °FPassing clouds.8 mph93%30.27 "Hg4 mi
5:00 am46 °FOvercast.7 mph93%30.27 "Hg4 mi
4:30 am45 °FPassing clouds.8 mph100%30.27 "Hg4 mi
4:00 am43 °FFog.5 mph93%30.27 "Hg3 mi
3:30 am43 °FFog.7 mph100%30.30 "Hg3 mi
3:00 am43 °FFog.7 mph93%30.30 "Hg3 mi
Weather by CustomWeather, © 2016

See weather overviewHow to use our weather pages